Satellite-Ground Cal/Val Site Overpasses Predictions

Prediction of Satellite NPP Overpassing Cal/Val Site: Antarctic Dome C

Ground Cal/Val Site Location: Latitude: -75.10, Longitude: 123.35; Satellite-Ground Site NADIR distance within 100 km.

Table of predicted overpasses for the next 14.0 days since TLE Epoch: 11/2/2024
Interval Starting Time Ending Time Minimum Distance Time Minimum Distance (km)
1 11/02/2024 07:37:14 11/02/2024 07:37:42 11/02/2024 07:37:28 33.63
2 11/03/2024 07:18:29 11/03/2024 07:18:47 11/03/2024 07:18:38 76.53
3 11/05/2024 15:00:43 11/05/2024 15:01:06 11/05/2024 15:00:55 57.13
4 11/06/2024 14:41:53 11/06/2024 14:42:18 11/06/2024 14:42:05 52.01
5 11/07/2024 07:43:33 11/07/2024 07:43:54 11/07/2024 07:43:43 68.72
6 11/08/2024 07:24:40 11/08/2024 07:25:07 11/08/2024 07:24:54 39.33
7 11/10/2024 15:07:05 11/10/2024 15:07:14 11/10/2024 15:07:10 94.54
8 11/11/2024 14:48:04 11/11/2024 14:48:33 11/11/2024 14:48:18 16.91
